WX8TJG-WX Weather Reports


time (UTC)temp
C
wind
direction
speed
KPH
gust
KPH
rain 1hr
cm
rain 24hr
cm
rain mn
cm
humidity
%
barometer
mb
20260504014018 9 180 6.4 9.7 0.00 0.03 0.03 75 1013.2
20260504013015 9 163 6.4 8.0 0.00 0.03 0.03 74 1013.2
20260504012017 9 177 6.4 11.3 0.00 0.03 0.03 73 1013.2
20260504011016 9 181 6.4 11.3 0.00 0.03 0.03 73 1013.2
20260504010016 9 180 6.4 9.7 0.00 0.03 0.03 72 1013.4
20260504005016 9 198 4.8 8.0 0.00 0.03 0.03 72 1013.5
20260504004016 10 190 9.7 14.5 0.00 0.03 0.03 71 1013.5
20260504003017 10 197 4.8 9.7 0.00 0.03 0.03 70 1013.6
20260504002017 10 223 8.0 27.4 0.00 0.03 0.03 68 1013.8
20260504001017 10 234 8.0 12.9 0.00 0.03 0.03 67 1013.8
20260504000017 10 227 8.0 24.1 0.00 0.03 0.03 65 1013.8
20260503235037 11 243 12.9 22.5 0.00 0.03 0.03 63 1013.7
20260503234017 12 252 11.3 16.1 0.00 0.03 0.03 61 1013.5
20260503233018 13 246 12.9 27.4 0.00 0.03 0.03 51 1013.3
20260503232018 13 240 9.7 20.9 0.00 0.03 0.03 47 1013.1
20260503231018 13 224 8.0 14.5 0.00 0.03 0.03 47 1013.0
20260503230038 13 229 9.7 16.1 0.03 0.03 0.03 46 1013.1
20260503225018 14 212 9.7 17.7 0.03 0.03 0.03 45 1013.2
20260503224016 14 220 8.0 16.1 0.03 0.03 0.03 46 1013.2
20260503223016 14 234 6.4 17.7 0.03 0.03 0.03 46 1013.3
20260503222016 14 223 8.0 20.9 0.03 0.03 0.03 46 1013.4
20260503221016 14 226 6.4 14.5 0.03 0.03 0.03 47 1013.5
20260503220016 14 234 8.0 16.1 0.00 0.00 0.00 45 1013.5
20260503215016 14 225 9.7 24.1 0.00 0.00 0.00 45 1013.5
20260503214016 15 241 9.7 22.5 0.00 0.00 0.00 46 1013.5
20260503213017 15 224 9.7 22.5 0.00 0.00 0.00 45 1013.5
20260503212017 15 232 8.0 16.1 0.00 0.00 0.00 46 1013.6
20260503211018 15 216 9.7 17.7 0.00 0.00 0.00 46 1013.6
20260503210037 15 215 11.3 22.5 0.00 0.00 0.00 46 1013.8
20260503205017 15 231 8.0 19.3 0.00 0.00 0.00 46 1013.9
20260503204017 15 246 11.3 29.0 0.00 0.00 0.00 46 1013.9
20260503203018 15 248 11.3 24.1 0.00 0.00 0.00 46 1014.0
20260503202018 15 250 11.3 22.5 0.00 0.00 0.00 46 1014.1
20260503201018 15 249 11.3 22.5 0.00 0.00 0.00 46 1014.2
20260503200018 15 212 11.3 19.3 0.00 0.00 0.00 46 1014.3
20260503195016 15 242 8.0 17.7 0.00 0.00 0.00 46 1014.4
20260503194015 15 226 12.9 25.7 0.00 0.00 0.00 44 1014.6
20260503193016 15 235 9.7 20.9 0.00 0.00 0.00 47 1014.7
20260503192016 15 246 9.7 19.3 0.00 0.00 0.00 47 1014.9
20260503191016 15 215 12.9 25.7 0.00 0.00 0.00 46 1015.0
20260503190016 15 233 9.7 20.9 0.00 0.00 0.00 47 1015.2
20260503185017 15 209 12.9 22.5 0.00 0.00 0.00 47 1015.3
20260503184020 15 214 11.3 20.9 0.00 0.00 0.00 48 1015.5
20260503183016 14 226 9.7 19.3 0.00 0.00 0.00 48 1015.5
20260503182017 14 223 8.0 20.9 0.00 0.00 0.00 48 1015.7
20260503181017 14 205 14.5 24.1 0.00 0.00 0.00 46 1015.7
20260503180017 14 244 11.3 19.3 0.00 0.00 0.00 46 1015.9
20260503175018 14 222 9.7 19.3 0.00 0.00 0.00 45 1015.9
20260503174017 14 230 9.7 20.9 0.00 0.00 0.00 48 1016.0
20260503173018 14 234 6.4 16.1 0.00 0.00 0.00 49 1016.1
20260503171018 14 245 9.7 20.9 0.00 0.00 0.00 49 1016.5
20260503131016 7 196 6.4 14.5 0.00 0.10 0.00 67 1017.7
20260503081020 1 157 1.6 6.4 0.00 0.10 0.00 89 1016.9
20260503072017 1 161 1.6 4.8 0.00 0.10 0.00 86 1016.9
20260503071017 1 151 1.6 4.8 0.00 0.10 0.00 87 1016.9
20260503055018 1 146 0.0 1.6 0.00 0.10 0.00 89 1017.3
20260503054035 2 136 1.6 4.8 0.00 0.10 0.00 88 1017.3
20260503053018 2 145 0.0 3.2 0.00 0.10 0.00 89 1017.3
20260503052019 2 309 0.0 0.0 0.00 0.10 0.00 89 1017.3
20260503051015 2 0.0 0.0 0.00 0.10 0.00 88 1017.3
20260503050016 2 194 1.6 4.8 0.00 0.10 0.00 89 1017.3
20260503044016 2 218 0.0 3.2 0.00 0.10 0.00 89 1017.2
20260503043016 2 0.0 0.0 0.00 0.10 0.00 89 1017.2
20260503042016 2 249 0.0 1.6 0.00 0.10 0.00 89 1017.2
20260503041036 2 300 0.0 0.0 0.00 0.10 0.00 89 1017.3
20260503040022 3 169 0.0 1.6 0.00 0.10 0.00 89 1017.3
20260503035017 3 205 0.0 1.6 0.00 0.10 0.10 88 1017.4
20260503034017 3 295 0.0 0.0 0.00 0.10 0.10 88 1017.3
20260503033018 3 182 0.0 1.6 0.00 0.10 0.10 88 1017.4
20260503032017 3 210 0.0 1.6 0.00 0.10 0.10 87 1017.5
20260503031017 3 166 1.6 4.8 0.00 0.10 0.10 88 1017.5
20260503030018 3 202 0.0 4.8 0.00 0.10 0.10 88 1017.5
20260503025018 3 176 1.6 4.8 0.00 0.10 0.10 88 1017.6
20260503024018 3 351 0.0 1.6 0.00 0.10 0.10 87 1017.7
20260503023018 3 314 0.0 1.6 0.00 0.10 0.10 88 1017.8
20260503022036 3 194 0.0 4.8 0.00 0.10 0.10 88 1017.8
20260503021036 4 138 0.0 1.6 0.00 0.10 0.10 87 1017.7
20260503020036 3 199 0.0 1.6 0.00 0.10 0.10 87 1017.6
20260503015016 3 96 0.0 1.6 0.00 0.10 0.10 87 1017.6